Theta_e
307 307 306 307 306 306 305 304 303 303 301 300 300 299 303 302 302 302 302 302 302 302 302 302 302 302 301 301 300 300 299 297 296 299 300 299 299 299 298 297 296 297 298
304 305 304 305 305 305 305 304 303 302 301 300 300 298 302 302 301 302 302 302 302 302 302 301 301 301 300 300 300 300 299 299 298 299 299 299 299 299 298 298 297 297 297
302 303 303 303 304 305 305 303 303 302 300 300 299 298 299 302 300 300 302 301 301 300 300 299 299 299 299 298 298 298 298 298 298 298 297 298 299 299 298 297 296 296 296
300 301 302 302 303 304 304 303 303 302 300 300 299 298 298 300 300 299 299 300 300 299 298 297 297 296 296 296 295 296 296 296 296 296 297 298 298 297 298 298 297 295 297
298 299 300 301 302 303 303 303 302 301 300 300 299 298 297 298 299 298 298 298 298 297 296 295 294 293 293 293 293 294 294 294 295 295 296 296 297 298 298 297 296 295 295
297 298 298 300 301 302 302 303 302 300 300 299 299 298 297 297 297 297 296 295 295 295 293 293 293 293 292 292 292 293 293 293 294 293 294 295 296 296 296 296 297 297 295
297 297 297 298 300 302 302 302 301 300 300 299 299 298 296 296 296 295 294 293 293 293 292 292 292 292 292 292 292 292 292 292 292 292 293 293 295 295 296 296 296 296 296
296 297 297 297 299 301 301 301 301 300 300 299 299 298 296 295 294 294 293 293 292 292 292 291 291 291 292 291 291 291 291 291 291 291 291 292 294 295 295 295 296 296 295
297 298 298 298 298 300 301 301 301 300 299 299 298 298 296 295 294 293 293 292 292 292 292 291 291 291 291 291 291 291 291 291 290 290 290 291 293 294 294 295 295 295 294
298 298 298 298 298 300 301 301 301 300 300 299 298 298 296 295 294 293 293 292 292 292 292 291 291 291 291 291 291 291 291 290 290 289 290 291 291 290 292 293 294 295 295
296 297 298 298 299 300 301 301 301 300 299 299 298 298 297 295 294 293 293 292 292 292 292 292 291 291 291 291 291 291 291 290 290 289 289 289 288 288 288 291 293 294 294
295 296 297 298 299 299 300 300 300 300 299 299 298 297 297 296 294 293 293 292 292 292 292 291 291 291 291 291 291 291 291 290 290 289 288 288 287 287 287 289 292 293 293
294 295 296 297 298 299 300 300 300 299 299 299 298 297 297 297 295 293 292 292 292 292 292 291 291 291 291 291 291 290 290 290 290 289 289 288 287 286 287 288 290 292 292
293 294 295 296 297 298 299 299 299 299 299 299 298 297 297 297 296 295 294 292 292 292 292 291 291 290 291 291 290 290 290 290 289 289 289 288 287 286 286 287 288 291 292
293 293 294 295 297 298 298 300 300 300 300 300 299 298 297 297 298 297 296 294 293 292 292 291 291 291 291 290 290 290 290 290 289 289 289 288 287 286 286 286 287 290 291
291 292 294 294 295 297 298 299 298 298 299 299 299 299 298 297 297 297 296 294 292 291 291 291 291 291 291 290 290 290 290 290 290 290 289 288 288 287 286 285 285 287 290
289 291 293 294 295 296 297 299 298 298 299 298 298 298 297 296 296 296 296 295 294 292 292 291 292 291 292 291 290 289 289 289 290 290 290 289 288 286 286 285 284 284 287
289 289 291 293 295 296 296 297 302 301 298 298 298 297 297 295 295 295 295 294 295 294 294 293 294 292 292 291 290 289 289 289 290 290 290 289 288 287 286 285 284 283 283
289 289 290 291 292 293 295 297 298 297 297 297 296 294 293 294 294 294 294 295 296 295 295 295 295 294 292 290 289 289 288 288 289 290 290 289 288 287 286 285 284 283 283
289 289 289 289 290 291 292 293 292 292 292 292 292 293 293 293 294 294 294 295 294 293 293 293 293 292 291 290 288 288 288 288 289 290 290 289 288 287 287 286 284 284 283
288 288 289 289 289 289 290 290 291 291 291 291 291 291 292 292 291 291 291 291 291 290 290 290 291 291 290 289 287 287 287 287 288 289 289 288 288 287 287 286 285 284 284
286 287 287 288 288 288 288 288 288 289 288 288 288 288 287 289 288 288 288 288 288 287 287 287 287 288 287 288 288 287 287 287 287 288 288 288 287 287 287 286 286 286 285
285 285 285 286 286 286 286 286 285 286 286 286 286 286 285 286 286 286 286 286 286 287 287 287 286 286 286 286 286 287 286 286 286 287 287 288 287 287 286 286 285 285 285
284 284 284 284 284 284 284 283 283 283 283 283 283 283 283 283 283 284 284 284 284 285 285 285 285 285 285 285 285 285 285 286 286 286 286 286 286 285 285 285 285 284 284
283 283 283 282 282 282 282 282 281 281 281 281 281 281 281 281 281 281 282 282 282 282 283 283 283 283 283 283 283 284 284 284 284 284 284 284 284 283 283 283 283 283 283
281 281 281 281 280 280 280 280 279 279 279 279 279 279 279 279 279 279 279 280 280 280 280 281 281 281 281 281 281 281 281 282 282 282 282 281 281 281 281 281 281 281 281
Wind_Speed
33 37 40 43 43 40 35 30 26 23 22 19 16 15 14 11 8 6 7 8 7 7 6 5 5 3 2 3 3 4 6 9 14 19 21 21 19 18 16 17 19 20 22
31 34 39 42 43 40 36 33 28 25 23 19 17 17 16 14 10 8 7 8 7 6 5 5 4 2 2 2 3 5 6 8 13 18 19 20 19 19 19 18 17 16 20
27 32 37 41 42 42 38 34 29 27 25 21 20 19 18 16 13 11 9 8 8 6 5 4 3 1 1 3 4 5 7 8 10 14 18 18 19 20 21 18 16 12 17
25 32 36 39 40 42 39 35 31 29 26 23 21 20 19 18 16 13 11 11 10 8 6 4 3 1 1 3 5 6 7 9 11 12 16 18 19 20 21 21 18 15 14
22 30 35 35 38 42 40 36 32 30 27 24 23 22 21 19 18 15 12 11 10 8 6 4 3 1 2 3 5 6 8 9 10 12 15 17 19 20 21 21 18 18 15
22 27 31 35 38 43 40 37 34 31 29 27 25 24 22 20 19 16 14 12 10 9 7 5 4 3 3 4 6 7 8 9 10 12 14 16 18 19 18 17 16 17 18
22 26 30 34 38 43 41 38 35 33 31 28 27 25 23 20 19 17 15 13 11 9 7 6 4 4 4 5 6 7 8 9 10 12 14 15 17 18 18 16 14 11 12
22 27 29 33 39 43 42 39 36 35 32 29 28 26 24 22 20 18 16 15 13 10 9 7 6 5 4 5 5 6 7 8 9 10 12 13 14 15 16 17 16 10 7
25 26 30 33 37 42 44 41 38 37 33 31 28 27 26 23 21 19 18 16 15 12 11 9 8 6 5 5 5 5 6 7 8 10 11 12 13 14 15 15 13 12 7
25 25 28 33 37 43 44 42 39 37 34 31 29 28 25 23 22 20 19 18 16 14 12 11 9 8 7 6 6 5 5 6 8 9 10 10 12 13 14 14 14 12 10
22 22 26 32 39 42 44 44 40 38 35 32 30 29 27 25 24 22 21 20 16 15 14 12 11 10 8 7 7 6 6 6 7 7 7 8 10 11 12 13 13 12 10
18 21 24 30 37 42 44 44 41 39 37 34 32 31 30 28 26 25 23 20 18 17 15 14 13 11 10 9 8 8 7 7 7 7 6 7 8 9 11 11 12 12 10
17 20 24 28 34 40 44 44 43 41 39 36 35 35 32 30 30 28 25 22 21 19 17 16 15 13 12 11 10 10 9 9 8 7 6 7 7 8 9 10 10 10 9
17 18 22 26 31 36 41 44 44 42 41 39 37 35 36 31 29 29 26 25 24 22 20 19 18 17 15 14 13 12 11 10 8 7 7 7 7 7 7 8 9 9 8
16 17 19 24 28 33 38 42 42 41 39 37 34 33 30 31 31 26 27 26 24 23 22 23 22 20 18 17 15 14 13 12 10 9 8 7 7 7 6 6 6 6 6
14 16 17 22 26 28 32 35 36 35 34 33 33 30 29 28 26 24 24 24 23 24 25 26 25 22 21 19 17 16 15 13 12 11 9 8 8 7 5 4 3 3 3
12 14 15 20 24 27 30 31 31 32 33 33 31 31 28 27 24 24 23 23 24 27 31 29 28 25 23 22 19 18 17 15 14 12 11 10 9 8 6 4 2 2 2
9 10 12 17 21 23 26 29 25 25 27 27 32 31 28 28 27 25 24 24 26 28 32 30 30 27 25 24 22 20 19 18 15 14 13 11 10 9 8 6 4 3 2
7 8 9 12 15 19 22 24 25 25 24 25 22 26 26 26 26 25 25 27 29 31 33 31 30 27 26 25 24 22 21 19 17 16 15 13 12 11 10 9 8 6 5
6 7 8 9 11 13 16 18 20 19 19 19 19 19 19 20 22 23 24 26 29 30 31 31 30 29 25 25 25 23 22 21 19 18 16 15 14 13 12 11 10 9 7
5 7 9 10 12 14 14 16 17 18 18 18 16 15 16 16 16 17 17 18 21 23 25 26 26 25 24 25 25 24 22 21 20 19 18 17 16 15 13 12 12 11 9
7 9 10 12 12 13 14 15 16 17 16 15 13 10 10 12 14 15 15 16 17 16 15 14 14 13 15 19 21 21 21 21 21 20 19 19 18 16 15 14 13 12 11
9 11 13 14 13 14 14 14 13 12 12 11 10 10 11 10 11 13 14 13 14 15 16 16 15 15 14 13 15 20 21 20 19 19 19 19 19 19 17 15 14 13 11
14 15 16 17 17 17 16 16 16 15 14 13 12 11 10 9 8 8 9 10 12 13 13 13 13 13 13 12 12 14 15 17 18 18 18 18 18 18 18 16 15 14 12
17 18 19 20 20 20 20 20 20 20 19 18 17 16 14 13 12 10 9 8 6 6 7 8 9 10 10 11 12 12 13 14 14 15 15 15 16 16 16 16 16 16 15
23 23 24 24 25 25 25 24 23 22 22 20 19 18 16 15 14 13 12 11 9 8 7 6 6 6 7 8 10 10 10 11 11 12 13 13 14 14 15 15 16 16 16
Wind_Direction
231 231 228 227 222 218 217 217 221 222 222 225 227 223 217 214 208 179 145 132 129 124 112 99 96 97 80 51 27 360 348 330 320 341 352 358 359 353 356 354 354 353 356
238 234 230 229 223 219 216 217 218 220 221 224 225 221 217 216 215 208 176 153 150 141 128 121 115 91 37 7 3 355 343 332 331 339 356 1 7 360 359 2 359 357 7
240 235 231 229 224 218 217 216 217 218 219 222 223 222 219 218 220 219 211 188 173 168 160 153 141 108 1 356 354 352 348 342 337 342 352 5 11 9 2 7 5 11 18
245 239 234 231 225 218 216 215 217 218 219 221 222 221 219 218 220 223 219 213 199 187 184 180 173 162 323 336 344 347 349 349 351 353 1 3 5 6 5 8 16 20 25
256 244 239 234 226 218 216 215 215 215 217 219 221 220 219 220 222 222 220 221 220 211 203 202 214 244 311 329 340 344 349 353 358 3 358 1 0 6 5 7 15 19 20
261 251 243 235 226 217 215 215 214 214 216 219 219 219 221 221 221 222 221 224 227 226 222 222 238 264 291 316 333 338 346 358 3 358 358 357 359 1 3 2 6 16 19
262 252 244 235 227 218 215 215 214 215 218 220 219 220 220 219 220 222 222 223 223 225 230 232 246 264 291 317 328 335 342 352 355 353 355 356 359 359 360 5 7 12 25
275 248 242 234 226 218 214 215 215 217 219 221 221 220 219 219 219 220 223 224 224 224 227 231 237 253 273 296 320 330 339 345 348 349 352 357 359 2 3 4 6 12 16
280 254 238 232 224 217 215 215 216 218 219 221 221 221 221 219 219 221 223 226 227 226 228 233 239 248 261 282 303 321 333 338 340 345 352 358 5 5 9 11 4 8 15
284 256 241 231 222 216 215 217 218 220 222 223 221 221 222 221 221 221 224 226 227 230 232 234 240 249 260 276 292 310 323 331 338 343 354 1 5 4 7 8 5 5 11
279 249 241 229 224 216 216 218 221 220 221 222 222 223 223 221 222 223 226 228 229 231 233 234 237 245 254 267 279 292 306 319 328 336 348 356 359 2 1 2 4 7 7
271 249 238 230 224 221 219 221 221 222 222 222 222 221 222 221 222 224 227 229 228 231 235 236 237 242 249 258 268 279 290 303 314 323 336 346 354 356 358 358 357 2 9
268 250 240 228 223 222 221 220 222 223 223 223 223 223 222 223 224 224 225 229 231 234 236 240 242 244 249 256 264 271 279 288 298 308 315 325 339 350 356 357 354 352 2
261 251 242 227 220 220 221 223 224 223 223 225 225 225 225 223 226 229 231 229 230 234 237 242 244 246 248 253 258 264 270 277 285 290 297 309 323 338 349 353 356 360 360
258 247 240 230 222 221 220 223 225 227 230 231 233 235 233 230 232 234 237 235 238 239 240 243 245 247 250 253 256 260 266 271 276 279 285 292 301 315 337 351 360 9 13
257 247 233 231 222 217 218 220 224 230 231 230 235 237 243 242 238 236 237 235 235 238 239 242 246 248 251 254 256 257 260 264 266 268 272 275 282 292 307 330 354 10 35
254 243 231 226 222 218 214 216 219 221 224 225 231 235 234 238 236 231 230 228 230 234 239 240 246 247 251 252 253 253 256 257 258 261 264 265 267 271 276 283 296 320 341
247 243 227 224 220 218 217 215 217 229 228 227 229 231 228 229 229 228 229 225 227 233 239 244 248 249 250 250 251 251 253 253 255 256 258 257 256 255 255 255 248 245 253
234 226 216 209 213 214 213 215 216 220 224 228 226 225 227 228 226 230 231 231 239 243 246 247 251 251 250 248 248 247 248 249 250 250 252 251 250 247 245 243 240 236 238
217 205 203 186 187 191 194 199 202 202 201 201 203 209 213 214 220 228 235 240 243 243 245 248 248 251 246 246 247 246 245 243 245 246 246 245 244 243 240 239 239 237 234
181 180 175 171 168 167 170 174 177 178 182 187 191 200 208 212 215 223 232 238 244 246 249 251 250 250 247 244 245 243 240 239 240 241 240 240 240 239 236 234 236 234 232
167 164 165 168 167 165 162 162 165 169 169 175 180 187 189 198 201 206 215 221 228 232 240 248 253 250 249 248 242 238 236 235 237 237 236 235 234 234 234 232 233 233 230
146 151 152 149 149 151 153 151 153 155 158 162 167 175 184 189 195 202 207 203 209 218 228 231 233 238 243 246 238 230 230 234 236 234 237 238 235 231 229 231 232 232 232
131 132 134 133 133 134 133 131 130 129 130 131 133 137 142 148 159 172 185 199 211 216 216 220 228 235 240 240 229 224 223 225 228 231 231 230 229 228 226 225 229 233 235
125 124 123 121 120 118 117 116 116 114 113 112 111 111 111 111 113 116 122 131 145 166 189 204 212 219 218 212 210 210 212 217 221 223 224 223 222 221 222 225 230 235 239
114 114 112 112 111 111 110 109 107 107 105 103 102 101 100 99 98 99 98 99 101 108 117 130 148 167 185 195 202 207 211 215 216 217 217 217 220 224 227 231 236 239 242